Von / Nach
Hinflug - Rückflug
Erwachsene / Kinder
Promocode
Nächste Ankünfte Flughafen St.Gallen-Altenrhein

Zur Zeit stehen leider keine aktuellen Fluginformationen zur Verfügung.
Nächste Abflüge Flughafen St.Gallen-Altenrhein

Zur Zeit stehen leider keine aktuellen Fluginformationen zur Verfügung.

Flugplan

Bitte wählen Sie Ihren gewünschten Abflug- und Zielflughafen aus.


Live aus Altenrhein
LIVE
LSZR 102120Z AUTO 26010KT 230V290 9999 BKN043 SCT050 05/M01 Q1023
Zeitraffer heute
2018-12-10 00:14:23
LSZR 092250Z AUTO 27012KT 9999 SCT041 BKN047 06/03 Q1017 REDZ
Zeitraffer gestern
2018-12-09 00:14:22
LSZR 082250Z AUTO 24008G19KT 190V290 9999 FEW041 BKN046 10/04 Q1010 RERA

Ibiza

Ab EUR 279.- hin & zurück.

 

Jetzt buchen

Wien

Ab EUR 109.- pro Strecke.

 

Jetzt buchen

Mallorca

Ab EUR 349.- hin & zurück.

 

Jetzt buchen

General Aviation

Business & General Aviation LSZR.

 

More information

Fluggutscheine

Das ideale Geschenk.

 

Jetzt kaufen

Geschenk an Bord

Überraschen Sie Ihre Liebsten an Bord.

 

Jetzt bestellen

 

 Shuttlebus


Nutzen Sie unseren

Shuttlebus zwischen Altenrhein

und Dornbirn & Bregenz.

 

Mehr dazu

 

People's Online-Shop


Von der Überraschung an

Bord über Badetücher bis

zum Flugzeugmodell.

 

Mehr dazu


News


Aktuelles von People's

und dem Flughafen

St.Gallen-Altenrhein.

 

Mehr dazu

 

Ad-hoc Charter


Chartern Sie eine unserer

Embraer170 für Ihren eigenen

Anlass oder ACMI-Einsätze.


Mehr dazu

  

 

Teile dein People's-Erlebnis mit uns:

 

#peoplesairline bei Instagram